Cambridge, MN

2:46 AM CST on February 09, 2016 (GMT -0600)
Cambridge Municipal

Weather History for KCBG - January, 2014

Change the Weather History Date:

Sunday, January 26, 2014

  Actual Average Record
Temperature  
Mean Temperature 5 °F -  
Max Temperature 15 °F 19 °F 46 °F (2002)
Min Temperature -7 °F -2 °F -35 °F (1972)
Degree Days  
Heating Degree Days 60    
Moisture  
Dew Point -4 °F    
Average Humidity 66    
Maximum Humidity 78    
Minimum Humidity 55    
Precipitation  
Precipitation 0.00 in - - ()
Sea Level Pressure  
Sea Level Pressure 29.55 in    
Wind  
Wind Speed 8 mph (WNW)    
Max Wind Speed 25 mph    
Max Gust Speed 41 mph    
Visibility 5 miles    
Events Snow    
Averages and records for this station are not official NWS values.
T = Trace of Precipitation, MM = Missing Value Source: NWS Daily Summary

Daily Weather History Graph

Daily Weather History Graph

Search for Another Location

Airport or City:

Trip Planner

Search our weather history database for the weather conditions in past years. The results will help you decide how hot, cold, wet, or windy it might be!

Date:

Astronomy

Jan. 26, 2014 Rise Set
Actual Time 7:40 AM CST 5:11 PM CST
Civil Twilight 7:08 AM CST 5:43 PM CST
Nautical Twilight 6:32 AM CST 6:19 PM CST
Astronomical Twilight 5:57 AM CST 6:54 PM CST
Moon 3:19 AM CST (1/26) 12:59 PM CST (1/26)
Length of Visible Light 10h 34m
Length of Day
9h 30m
Waning Crescent, 23% of the Moon is Illuminated
Jan 26
Waning Crescent
Jan 30
New
Feb 6
First Quarter
Feb 14
Full
Feb 22
Last Quarter

Hourly Weather History & Observations

Time (CST) Temp. Windchill Dew Point Humidity Pressure Visibility Wind Dir Wind Speed Gust Speed Precip Events Conditions
12:15 AM 3.2 °F -4.2 °F -2.2 °F 78% 29.50 in 2.0 mi East 3.5 mph - N/A Snow Light Snow
12:35 AM 3.2 °F -6.2 °F -2.2 °F 78% 29.48 in 2.0 mi East 4.6 mph - N/A Snow Light Snow
12:56 AM 3.2 °F -6.2 °F -2.2 °F 78% 29.45 in 1.2 mi East 4.6 mph - N/A Snow Light Snow
1:15 AM 5.0 °F -2.1 °F -2.2 °F 72% 29.45 in 4.0 mi ENE 3.5 mph - N/A Snow Light Snow
1:35 AM 5.0 °F -4.1 °F -2.2 °F 72% 29.44 in 4.0 mi East 4.6 mph - N/A Snow Light Snow
1:56 AM 5.0 °F -4.1 °F -2.2 °F 72% 29.44 in 1.5 mi ENE 4.6 mph - N/A Snow Light Snow
2:15 AM 5.0 °F -4.1 °F -2.2 °F 72% 29.43 in 1.0 mi East 4.6 mph - N/A Snow Snow
2:35 AM 5.0 °F -2.1 °F -2.2 °F 72% 29.42 in 0.8 mi ENE 3.5 mph - N/A Snow Snow
2:56 AM 5.0 °F -5.6 °F -2.2 °F 72% 29.41 in 2.5 mi East 5.8 mph - N/A Snow Light Snow
3:15 AM 5.0 °F -2.1 °F -2.2 °F 72% 29.40 in 1.8 mi ENE 3.5 mph - N/A Snow Light Snow
3:35 AM 5.0 °F -4.1 °F -2.2 °F 72% 29.40 in 2.0 mi ENE 4.6 mph - N/A Snow Light Snow
3:55 AM 5.0 °F - -2.2 °F 72% 29.40 in 3.0 mi Calm Calm - N/A Snow Light Snow
4:15 AM 5.0 °F -2.1 °F -2.2 °F 72% 29.40 in 1.5 mi ENE 3.5 mph - N/A Snow Light Snow
4:35 AM 5.0 °F - -2.2 °F 72% 29.41 in 3.0 mi Calm Calm - N/A Snow Light Snow
4:55 AM 5.0 °F -4.1 °F -2.2 °F 72% 29.38 in 2.5 mi ENE 4.6 mph - N/A Snow Light Snow
5:16 AM 5.0 °F -2.1 °F -2.2 °F 72% 29.37 in 1.8 mi East 3.5 mph - N/A Snow Light Snow
5:35 AM 5.0 °F - -2.2 °F 72% 29.36 in 2.0 mi Calm Calm - N/A Snow Light Snow
5:55 AM 5.0 °F - -2.2 °F 72% 29.36 in 3.0 mi Calm Calm - N/A Snow Light Snow
6:16 AM 5.0 °F - -2.2 °F 72% 29.35 in 10.0 mi Calm Calm - N/A Snow Light Snow
6:35 AM 5.0 °F - -2.2 °F 72% 29.37 in 10.0 mi Calm Calm - N/A Snow Light Snow
6:55 AM 5.0 °F - -2.2 °F 72% 29.38 in 10.0 mi Calm Calm - N/A Snow Light Snow
7:16 AM 5.0 °F - -2.2 °F 72% 29.39 in 10.0 mi Calm Calm - N/A Snow Light Snow
7:35 AM 5.0 °F - -2.2 °F 72% 29.38 in 10.0 mi Calm Calm - N/A Snow Light Snow
7:55 AM 5.0 °F - -2.2 °F 72% 29.36 in 7.0 mi Calm Calm - N/A Snow Light Snow
8:16 AM 5.0 °F -2.1 °F -2.2 °F 72% 29.36 in 10.0 mi SW 3.5 mph - N/A Snow Light Snow
8:35 AM 6.8 °F -3.5 °F -2.2 °F 67% 29.36 in 10.0 mi WSW 5.8 mph - N/A Snow Light Snow
8:56 AM 6.8 °F -4.8 °F -0.4 °F 72% 29.35 in 5.0 mi SW 6.9 mph - N/A Snow Light Snow
9:15 AM 6.8 °F -5.9 °F -0.4 °F 72% 29.34 in 3.0 mi WSW 8.1 mph - N/A Snow Light Snow
9:35 AM 8.6 °F -5.5 °F 1.4 °F 73% 29.36 in 3.0 mi West 10.4 mph 16.1 mph N/A Snow Light Snow
9:56 AM 10.4 °F -1.5 °F 1.4 °F 67% 29.35 in 3.0 mi West 8.1 mph - N/A Snow Light Snow
10:15 AM 10.4 °F -2.4 °F 3.2 °F 73% 29.35 in 10.0 mi West 9.2 mph 16.1 mph N/A Snow Light Snow
10:36 AM 12.2 °F -3.7 °F 3.2 °F 67% 29.36 in 10.0 mi WNW 15.0 mph 20.7 mph N/A Snow Light Snow
10:55 AM 12.2 °F -3.1 °F 3.2 °F 67% 29.35 in 10.0 mi West 13.8 mph 18.4 mph N/A Snow Light Snow
11:15 AM 14.0 °F -1.4 °F 5.0 °F 67% 29.36 in 10.0 mi West 15.0 mph 19.6 mph N/A Snow Light Snow
11:36 AM 14.0 °F -3.0 °F 5.0 °F 67% 29.36 in 3.0 mi West 18.4 mph 29.9 mph N/A Snow Light Snow
11:55 AM 15.8 °F 0.3 °F 3.2 °F 58% 29.36 in 0.5 mi West 16.1 mph 28.8 mph N/A Snow Light Snow
12:15 PM 14.0 °F -3.9 °F 3.2 °F 62% 29.36 in 0.2 mi West 20.7 mph 31.1 mph N/A Snow Light Snow
12:36 PM 14.0 °F -5.1 °F 3.2 °F 62% 29.37 in 0.2 mi West 24.2 mph 34.5 mph N/A Snow Light Snow
12:55 PM 14.0 °F -5.5 °F 1.4 °F 57% 29.37 in 1.0 mi WNW 25.3 mph 33.4 mph N/A Snow Light Snow
1:16 PM 12.2 °F -7.1 °F 1.4 °F 62% 29.38 in 1.0 mi WNW 23.0 mph 28.8 mph N/A Snow Light Snow
1:35 PM 12.2 °F -4.8 °F 1.4 °F 62% 29.40 in 2.5 mi West 17.3 mph 27.6 mph N/A   Haze
1:55 PM 10.4 °F -7.7 °F -0.4 °F 62% 29.42 in 4.0 mi West 18.4 mph 31.1 mph N/A Snow Light Snow
2:16 PM 10.4 °F -5.4 °F -2.2 °F 57% 29.45 in 3.0 mi West 13.8 mph 29.9 mph N/A   Haze
2:35 PM 8.6 °F -10.5 °F -2.2 °F 62% 29.47 in 1.8 mi WNW 19.6 mph 41.4 mph N/A Snow Light Snow
2:56 PM 8.6 °F -10.5 °F -4.0 °F 57% 29.49 in 2.0 mi WNW 19.6 mph 34.5 mph N/A Snow Light Snow
3:15 PM 6.8 °F -11.3 °F -2.2 °F 67% 29.51 in 4.0 mi WNW 16.1 mph 25.3 mph N/A Snow Light Snow
3:35 PM 6.8 °F -14.7 °F -4.0 °F 61% 29.53 in 2.5 mi WNW 24.2 mph 32.2 mph N/A Snow Light Snow
3:56 PM 6.8 °F -12.4 °F -4.0 °F 61% 29.56 in 7.0 mi West 18.4 mph 24.2 mph N/A   Mostly Cloudy
4:15 PM 6.8 °F -12.9 °F -5.8 °F 56% 29.58 in 3.0 mi WNW 19.6 mph 28.8 mph N/A Snow Light Snow
4:35 PM 5.0 °F -15.2 °F -7.6 °F 56% 29.60 in 3.0 mi WNW 19.6 mph 28.8 mph N/A Snow Light Snow
4:56 PM 3.2 °F -17.1 °F -7.6 °F 61% 29.63 in 4.0 mi WNW 18.4 mph 25.3 mph N/A Snow Light Snow
5:15 PM 3.2 °F -17.6 °F -7.6 °F 61% 29.66 in 4.0 mi WNW 19.6 mph 26.5 mph N/A Snow Light Snow
5:36 PM 3.2 °F -15.3 °F -7.6 °F 61% 29.68 in 10.0 mi WNW 15.0 mph 23.0 mph N/A   Scattered Clouds
5:55 PM 3.2 °F -15.9 °F -5.8 °F 66% 29.70 in 5.0 mi WNW 16.1 mph 23.0 mph N/A Snow Light Snow
6:15 PM 3.2 °F -15.9 °F -7.6 °F 61% 29.73 in 5.0 mi NW 16.1 mph 27.6 mph N/A Snow Light Snow
6:36 PM 3.2 °F -16.5 °F -7.6 °F 61% 29.75 in 5.0 mi WNW 17.3 mph 29.9 mph N/A Snow Light Snow
6:55 PM 1.4 °F -19.9 °F -7.6 °F 66% 29.78 in 5.0 mi WNW 19.6 mph 25.3 mph N/A   Haze
7:15 PM 1.4 °F -18.8 °F -7.6 °F 66% 29.80 in 5.0 mi WNW 17.3 mph 25.3 mph N/A Snow Light Snow
7:36 PM 1.4 °F -18.2 °F -7.6 °F 66% 29.83 in 5.0 mi WNW 16.1 mph 24.2 mph N/A Snow Light Snow
7:55 PM -0.4 °F -21.7 °F -9.4 °F 66% 29.85 in 7.0 mi WNW 18.4 mph 24.2 mph N/A Snow Light Snow
8:16 PM -0.4 °F -19.2 °F -11.2 °F 60% 29.87 in 10.0 mi WNW 13.8 mph 21.9 mph N/A   Clear
8:35 PM -0.4 °F -19.9 °F -11.2 °F 60% 29.88 in 10.0 mi WNW 15.0 mph 27.6 mph N/A   Clear
8:56 PM -0.4 °F -20.5 °F -11.2 °F 60% 29.90 in 10.0 mi WNW 16.1 mph 24.2 mph N/A   Clear
9:15 PM -2.2 °F -22.2 °F -13.0 °F 60% 29.91 in 7.0 mi WNW 15.0 mph 28.8 mph N/A Snow Light Snow
9:35 PM -2.2 °F -22.9 °F -13.0 °F 60% 29.93 in 10.0 mi WNW 16.1 mph 27.6 mph N/A   Clear
9:55 PM -2.2 °F -21.5 °F -14.8 °F 55% 29.94 in 10.0 mi WNW 13.8 mph 26.5 mph N/A   Clear
10:16 PM -2.2 °F -20.7 °F -14.8 °F 55% 29.95 in 10.0 mi WNW 12.7 mph 23.0 mph N/A   Clear
10:35 PM -4.0 °F -27.0 °F -14.8 °F 60% 29.97 in 10.0 mi WNW 19.6 mph 26.5 mph N/A   Clear
10:55 PM -5.8 °F -21.2 °F -14.8 °F 65% 29.99 in 10.0 mi WNW 8.1 mph - N/A   Clear
11:16 PM -5.8 °F -26.8 °F -14.8 °F 65% 30.00 in 4.0 mi WNW 15.0 mph - N/A Snow Light Snow
11:35 PM -5.8 °F -26.0 °F -16.6 °F 60% 30.01 in 7.0 mi West 13.8 mph 19.6 mph N/A Snow Light Snow
11:55 PM -7.6 °F -29.1 °F -18.4 °F 59% 30.03 in 10.0 mi WNW 15.0 mph 21.9 mph N/A Snow Light Snow